Time,TemperatureF,DewpointF,PressureIn,WindDirection,WindDirectionDegrees,WindSpeedMPH,WindSpeedGustMPH,Humidity,HourlyPrecipIn,Conditions,Clouds,dailyrainin,SoftwareType,DateUTC
2013-10-22 00:02:00,51.8,41.0,30.03,WSW,256,3.0,5.0,67,0.00,,,0.00,weatherlink.com 1.10,2013-10-22 06:02:00,
2013-10-22 00:18:00,51.2,41.0,30.03,WNW,290,1.0,3.0,69,0.00,,,0.00,weatherlink.com 1.10,2013-10-22 06:18:00,
2013-10-22 00:33:00,50.8,41.0,30.03,WSW,240,1.0,3.0,69,0.00,,,0.00,weatherlink.com 1.10,2013-10-22 06:33:00,
2013-10-22 00:48:00,49.7,41.0,30.03,West,261,0.0,1.0,72,0.00,,,0.00,weatherlink.com 1.10,2013-10-22 06:48:00,
2013-10-22 01:03:00,49.4,41.0,30.04,SW,221,1.0,3.0,72,0.00,,,0.00,weatherlink.com 1.10,2013-10-22 07:03:00,
2013-10-22 01:18:00,49.3,41.0,30.04,West,262,0.0,4.0,72,0.00,,,0.00,weatherlink.com 1.10,2013-10-22 07:18:00,
2013-10-22 01:33:00,49.5,40.0,30.04,WSW,252,2.0,5.0,71,0.00,,,0.00,weatherlink.com 1.10,2013-10-22 07:33:00,
2013-10-22 01:48:00,49.5,40.0,30.04,West,275,0.0,4.0,71,0.00,,,0.00,weatherlink.com 1.10,2013-10-22 07:48:00,
2013-10-22 02:03:00,49.4,40.0,30.04,WNW,287,1.0,5.0,71,0.00,,,0.00,weatherlink.com 1.10,2013-10-22 08:03:00,
2013-10-22 02:18:00,48.1,40.0,30.05,WNW,287,1.0,3.0,74,0.00,,,0.00,weatherlink.com 1.10,2013-10-22 08:18:00,
2013-10-22 02:33:00,48.3,40.0,30.05,SSW,212,2.0,3.0,74,0.00,,,0.00,weatherlink.com 1.10,2013-10-22 08:33:00,
2013-10-22 02:48:00,48.1,40.0,30.05,WSW,239,2.0,3.0,73,0.00,,,0.00,weatherlink.com 1.10,2013-10-22 08:48:00,
2013-10-22 03:03:00,48.4,40.0,30.05,WSW,245,2.0,5.0,72,0.00,,,0.00,weatherlink.com 1.10,2013-10-22 09:03:00,
2013-10-22 03:18:00,48.2,40.0,30.05,West,261,1.0,4.0,73,0.00,,,0.00,weatherlink.com 1.10,2013-10-22 09:18:00,
2013-10-22 03:33:00,47.6,39.0,30.04,West,272,2.0,3.0,73,0.00,,,0.00,weatherlink.com 1.10,2013-10-22 09:33:00,
2013-10-22 03:48:00,47.0,39.0,30.04,West,269,3.0,4.0,75,0.00,,,0.00,weatherlink.com 1.10,2013-10-22 09:48:00,
2013-10-22 04:03:00,46.5,39.0,30.04,West,264,0.0,3.0,76,0.00,,,0.00,weatherlink.com 1.10,2013-10-22 10:03:00,
2013-10-22 04:18:00,45.9,39.0,30.04,SW,236,1.0,4.0,77,0.00,,,0.00,weatherlink.com 1.10,2013-10-22 10:18:00,
2013-10-22 06:00:00,41.8,37.0,30.05,West,261,1.0,5.0,84,0.00,,,0.00,weatherlink.com 1.10,2013-10-22 12:00:00,
2013-10-22 06:18:00,41.4,37.0,30.06,West,273,2.0,3.0,84,0.00,,,0.00,weatherlink.com 1.10,2013-10-22 12:18:00,
2013-10-22 06:33:00,41.3,37.0,30.06,WSW,241,1.0,2.0,84,0.00,,,0.00,weatherlink.com 1.10,2013-10-22 12:33:00,
2013-10-22 06:48:00,40.7,37.0,30.06,WNW,297,3.0,5.0,86,0.00,,,0.00,weatherlink.com 1.10,2013-10-22 12:48:00,
2013-10-22 07:03:00,40.8,37.0,30.07,West,281,1.0,3.0,86,0.00,,,0.00,weatherlink.com 1.10,2013-10-22 13:03:00,
2013-10-22 07:18:00,41.2,37.0,30.07,WSW,243,1.0,2.0,85,0.00,,,0.00,weatherlink.com 1.10,2013-10-22 13:18:00,
2013-10-22 07:33:00,40.6,37.0,30.07,WSW,246,1.0,1.0,86,0.00,,,0.00,weatherlink.com 1.10,2013-10-22 13:33:00,
2013-10-22 07:48:00,39.9,37.0,30.07,WSW,240,0.0,1.0,88,0.00,,,0.00,weatherlink.com 1.10,2013-10-22 13:48:00,
2013-10-22 08:03:00,39.4,36.0,30.07,WNW,297,1.0,2.0,88,0.00,,,0.00,weatherlink.com 1.10,2013-10-22 14:03:00,
2013-10-22 08:18:00,39.4,37.0,30.09,West,275,0.0,1.0,89,0.00,,,0.00,weatherlink.com 1.10,2013-10-22 14:18:00,
2013-10-22 08:34:00,39.6,37.0,30.09,SE,143,1.0,1.0,89,0.00,,,0.00,weatherlink.com 1.10,2013-10-22 14:34:00,
2013-10-22 08:49:00,40.3,37.0,30.08,WSW,239,1.0,2.0,88,0.00,,,0.00,weatherlink.com 1.10,2013-10-22 14:49:00,
2013-10-22 09:04:00,41.1,38.0,30.08,NW,324,0.0,1.0,89,0.00,,,0.00,weatherlink.com 1.10,2013-10-22 15:04:00,
2013-10-22 09:20:00,43.4,39.0,30.09,WNW,295,1.0,2.0,83,0.00,,,0.00,weatherlink.com 1.10,2013-10-22 15:20:00,
2013-10-22 09:34:00,45.1,39.0,30.09,SW,235,0.0,3.0,80,0.00,,,0.00,weatherlink.com 1.10,2013-10-22 15:34:00,
2013-10-22 09:49:00,47.1,39.0,30.09,West,271,2.0,3.0,74,0.00,,,0.00,weatherlink.com 1.10,2013-10-22 15:49:00,
2013-10-22 10:04:00,47.6,40.0,30.09,SW,219,1.0,4.0,74,0.00,,,0.00,weatherlink.com 1.10,2013-10-22 16:04:00,
2013-10-22 10:20:00,48.8,40.0,30.08,WSW,241,2.0,5.0,71,0.00,,,0.00,weatherlink.com 1.10,2013-10-22 16:20:00,
2013-10-22 10:34:00,50.1,40.0,30.08,West,263,1.0,5.0,68,0.00,,,0.00,weatherlink.com 1.10,2013-10-22 16:34:00,
2013-10-22 10:49:00,51.8,41.0,30.08,SW,221,2.0,5.0,66,0.00,,,0.00,weatherlink.com 1.10,2013-10-22 16:49:00,
2013-10-22 11:04:00,53.0,41.0,30.07,South,176,1.0,4.0,64,0.00,,,0.00,weatherlink.com 1.10,2013-10-22 17:04:00,
2013-10-22 11:19:00,54.4,41.0,30.07,SW,229,3.0,4.0,61,0.00,,,0.00,weatherlink.com 1.10,2013-10-22 17:19:00,
2013-10-22 11:34:00,55.1,41.0,30.06,NW,311,2.0,4.0,60,0.00,,,0.00,weatherlink.com 1.10,2013-10-22 17:34:00,
2013-10-22 11:49:00,55.7,41.0,30.06,West,262,1.0,6.0,58,0.00,,,0.00,weatherlink.com 1.10,2013-10-22 17:49:00,
2013-10-22 12:05:00,56.9,41.0,30.06,WSW,255,2.0,6.0,56,0.00,,,0.00,weatherlink.com 1.10,2013-10-22 18:05:00,
2013-10-22 12:19:00,57.3,41.0,30.05,WNW,285,3.0,6.0,54,0.00,,,0.00,weatherlink.com 1.10,2013-10-22 18:19:00,
2013-10-22 12:34:00,57.9,41.0,30.05,NW,309,2.0,6.0,54,0.00,,,0.00,weatherlink.com 1.10,2013-10-22 18:34:00,
2013-10-22 12:49:00,58.8,41.0,30.04,SW,218,1.0,6.0,52,0.00,,,0.00,weatherlink.com 1.10,2013-10-22 18:49:00,
2013-10-22 13:04:00,59.4,42.0,30.04,SW,229,5.0,7.0,52,0.00,,,0.00,weatherlink.com 1.10,2013-10-22 19:04:00,
2013-10-22 13:19:00,60.6,41.0,30.02,West,259,1.0,6.0,49,0.00,,,0.00,weatherlink.com 1.10,2013-10-22 19:19:00,
2013-10-22 15:45:00,65.4,40.0,29.98,SW,224,1.0,4.0,39,0.00,,,0.00,weatherlink.com 1.10,2013-10-22 21:45:00,
2013-10-22 16:04:00,65.5,39.0,29.98,ESE,105,0.0,2.0,38,0.00,,,0.00,weatherlink.com 1.10,2013-10-22 22:04:00,
2013-10-22 16:19:00,64.5,40.0,29.97,East,84,0.0,3.0,41,0.00,,,0.00,weatherlink.com 1.10,2013-10-22 22:19:00,
2013-10-22 16:34:00,64.8,40.0,29.97,NNW,337,1.0,5.0,40,0.00,,,0.00,weatherlink.com 1.10,2013-10-22 22:34:00,
2013-10-22 16:49:00,65.8,39.0,29.97,North,4,0.0,1.0,38,0.00,,,0.00,weatherlink.com 1.10,2013-10-22 22:49:00,
2013-10-22 17:04:00,65.1,39.0,29.96,SE,125,1.0,2.0,39,0.00,,,0.00,weatherlink.com 1.10,2013-10-22 23:04:00,
2013-10-22 17:19:00,65.2,39.0,29.96,South,184,1.0,2.0,39,0.00,,,0.00,weatherlink.com 1.10,2013-10-22 23:19:00,
2013-10-22 17:34:00,65.1,40.0,29.96,SSE,156,1.0,2.0,40,0.00,,,0.00,weatherlink.com 1.10,2013-10-22 23:34:00,
2013-10-22 17:49:00,64.6,41.0,29.96,SSW,204,0.0,2.0,42,0.00,,,0.00,weatherlink.com 1.10,2013-10-22 23:49:00,
2013-10-22 18:04:00,61.5,41.0,29.96,SE,124,1.0,1.0,48,0.00,,,0.00,weatherlink.com 1.10,2013-10-23 00:04:00,
2013-10-22 18:19:00,58.0,41.0,29.96,SSE,157,1.0,1.0,54,0.00,,,0.00,weatherlink.com 1.10,2013-10-23 00:19:00,
2013-10-22 18:34:00,54.4,41.0,29.96,SSW,210,2.0,2.0,62,0.00,,,0.00,weatherlink.com 1.10,2013-10-23 00:34:00,
2013-10-22 18:49:00,53.2,41.0,29.97,SSW,201,0.0,2.0,64,0.00,,,0.00,weatherlink.com 1.10,2013-10-23 00:49:00,
2013-10-22 19:04:00,51.8,41.0,29.97,SSW,199,0.0,4.0,67,0.00,,,0.00,weatherlink.com 1.10,2013-10-23 01:04:00,
2013-10-22 19:19:00,50.7,41.0,29.97,SSW,204,0.0,1.0,70,0.00,,,0.00,weatherlink.com 1.10,2013-10-23 01:19:00,
2013-10-22 19:34:00,49.3,41.0,29.98,SSW,204,0.0,1.0,73,0.00,,,0.00,weatherlink.com 1.10,2013-10-23 01:34:00,
2013-10-22 19:49:00,47.7,41.0,29.98,South,172,2.0,2.0,77,0.00,,,0.00,weatherlink.com 1.10,2013-10-23 01:49:00,
2013-10-22 20:04:00,47.3,40.0,29.98,WSW,245,1.0,2.0,77,0.00,,,0.00,weatherlink.com 1.10,2013-10-23 02:04:00,
2013-10-22 20:19:00,45.8,40.0,29.99,NNW,340,1.0,1.0,81,0.00,,,0.00,weatherlink.com 1.10,2013-10-23 02:19:00,
2013-10-22 20:34:00,45.2,40.0,29.99,WSW,238,1.0,2.0,83,0.00,,,0.00,weatherlink.com 1.10,2013-10-23 02:34:00,
2013-10-22 20:49:00,45.1,40.0,29.99,WNW,288,1.0,1.0,82,0.00,,,0.00,weatherlink.com 1.10,2013-10-23 02:49:00,
2013-10-22 21:04:00,44.8,40.0,29.99,SW,218,0.0,3.0,84,0.00,,,0.00,weatherlink.com 1.10,2013-10-23 03:04:00,
2013-10-22 21:19:00,43.5,39.0,30.00,NW,319,4.0,4.0,85,0.00,,,0.00,weatherlink.com 1.10,2013-10-23 03:19:00,
2013-10-22 21:34:00,43.7,39.0,30.00,West,272,0.0,2.0,84,0.00,,,0.00,weatherlink.com 1.10,2013-10-23 03:34:00,
2013-10-22 21:49:00,43.3,39.0,30.01,West,263,0.0,2.0,86,0.00,,,0.00,weatherlink.com 1.10,2013-10-23 03:49:00,
2013-10-22 22:04:00,43.1,40.0,30.02,West,277,0.0,2.0,87,0.00,,,0.00,weatherlink.com 1.10,2013-10-23 04:04:00,
2013-10-22 22:19:00,42.8,40.0,30.02,SW,232,0.0,2.0,88,0.00,,,0.00,weatherlink.com 1.10,2013-10-23 04:19:00,
2013-10-22 22:34:00,42.4,39.0,30.03,WSW,248,0.0,1.0,89,0.00,,,0.00,weatherlink.com 1.10,2013-10-23 04:34:00,
2013-10-22 22:49:00,44.0,40.0,30.02,West,270,1.0,2.0,87,0.00,,,0.00,weatherlink.com 1.10,2013-10-23 04:49:00,
2013-10-22 23:04:00,43.9,40.0,30.03,WSW,253,0.0,3.0,87,0.00,,,0.00,weatherlink.com 1.10,2013-10-23 05:04:00,
2013-10-22 23:19:00,43.7,40.0,30.03,WSW,243,1.0,3.0,87,0.00,,,0.00,weatherlink.com 1.10,2013-10-23 05:19:00,
2013-10-22 23:34:00,43.4,40.0,30.03,SW,233,0.0,3.0,87,0.00,,,0.00,weatherlink.com 1.10,2013-10-23 05:34:00,
2013-10-22 23:49:00,43.2,40.0,30.03,WNW,285,0.0,2.0,88,0.00,,,0.00,weatherlink.com 1.10,2013-10-23 05:49:00,